OPS 4682 DEB, 38423

Orbit data source: Space-Track

OPS 4682 DEB, 38423 is space debris in LEO originally from a launch on Sat, 03 Apr 1965 UTC launched from the Air Force Western Test Range (AFWTR). Debris objects in space refer to the collection of defunct objects orbiting the Earth. Examples of debris include non-operational satellites, rocket bodies, and fragments generated from explosions, collisions, or faulty payload assembly.

Loading next visibility...
Identifier
38423, 1965-027EC
Orbit
LEO
Country
Flag of USUS
Related business
Manufacturer
Unknown
Mission
Spacecraft
Bus & Motor
Unknown
Mass
Unknown
Launch date (UTC)
1965-04-03 (61 years ago)
Launch vehicle
Unknown
Launch site
Air Force Western Test Range (AFWTR)
Object type
Payload
Rocket body
Debris
Shape & HBR
Unknown shape, 0.1 m
Radar Cross Section
Small (<0.1 m²)

Expand to show TLE details & history
Last TLE update: 5 days ago

TLE from 5 days ago
0 OPS 4682 DEB
1 38423U 65027EC  25298.94939603 -.00000281  00000-0 -10236-2 0  9996
2 38423  90.2505   6.4935 0022033 131.8179 228.4826 12.95288815603796
Epoch: 2025-10-25T22:47Z
TLE epoch observation values (Epoch: 2025-10-25T22:47:07.816Z)
Latitude
-0.00011°
Longitude
-9.86167°
Altitude
1,294.686 km
Speed
7.204 km/s
True Right ascension
00h 25m 58s
True Declination
0° 00' 00"
Sunlit
Object was in full shadow at epoch
Visualization orbit readout
Latitude
Unknown
Longitude
Unknown
Altitude
Unknown
Speed
Unknown
Apparent Right ascension
Unknown
Apparent Declination
Unknown
Sunlit
N/A
Visualization observer readout
Local Sidereal Time
11:22:17
Azimuth
Unknown
Elevation
Unknown
Doppler factor
Unknown
Orbital elements
Apogee altitude
1,294.603 km
Perigee altitude
1,260.867 km
Semi-major axis
7,655.872 km
Eccentricity
0.0022
Inclination
90.2505°
RAAN
6.4935°
Arg. of periapsis
131.8179°
True anomaly
228.2939°
Mean anomaly
228.4826°
Eccentric anomaly
228.38822°
Mean motion
3.24005 °/min
Orbital period
111.11 mins
BSTAR
-0.0010236
Loading maneuver chart data...
Computing Atmospheric mass density...
Loading historical data...
Loading historical data...
Loading historical data...
Loading historical data...
Loading historical data...
Loading historical data...
Loading historical data...

Documentation

Showing up to 5 results
|